ALPHASAT

Last updated on Thu Oct 30 2025 00:02:49 GMT+0000 (Coordinated Universal Time)

1 39215U 13038A 25302.47601773 .00000145 00000+0 00000+0 0 9990 2 39215 2.9594 3.1657 0003773 218.5088 12.6502 1.00270154 41703
UTC large
Height (km)
Speed (km/s)
/
Latitude / Longitude
Inclination (degrees)
Orbital Period (minutes)
Azimuth
Elevation
Range (km)
Doppler Factor

Next 0 passes for location: London (51.5072 / 0.1276)

Sorry there are no passes over London.